Regional Weather Roundup
Issued by NWS Portland, ME

Current Version | Previous Version | Text Only | Print | Product List | Glossary Off
Versions: 1 2 3 4 5 6 7 8 9 10 11 12 13 14 15 16 17 18 19 20 21 22 23 24 25 26 27 28 29 30 31 32 33 34 35 36 37 38 39 40 41 42 43 44 45 46 47 48 49 50
000 ASUS41 KGYX 231205 RWRGYX WEATHER ROUNDUP FOR MAINE AND NEW HAMPSHIRE NATIONAL WEATHER SERVICE GRAY ME 800 AM EDT FRI JUN 23 2017 MEZ002-005-006-010-012-015-018-020-021-024-026-027-029-231300- MAINE CITY SKY/WX TMP DP RH WIND PRES REMARKS PORTLAND CLOUDY 62 59 90 E6 29.81F 6HR MIN TEMP: 61; 6HR MAX TEMP: 64; 6HR PCP: TRACE; SANFORD CLOUDY 69 61 75 N3 29.81R BAR HARBOR CLOUDY 59 54 83 CALM 29.84S WISCASSET LGT RAIN 61 60 97 CALM 29.84F 6HR MIN TEMP: 55; 6HR MAX TEMP: 61; 6HR PCP: 0.13; ROCKLAND LGT RAIN 58 57 97 CALM 29.86R FRYEBURG CLOUDY 60 59 96 CALM 29.83S 6HR MIN TEMP: 58; 6HR MAX TEMP: 61; 6HR PCP: 0.03; LEWISTONAUBURN LGT RAIN 61 60 97 NE5 29.81F AUGUSTA LGT RAIN 60 58 92 CALM 29.84F 6HR MIN TEMP: 56; 6HR MAX TEMP: 60; 6HR PCP: 0.16; WATERVILLE LGT RAIN 59 58 96 CALM 29.81F BANGOR CLOUDY 63 56 78 SW7 29.84R 6HR MIN TEMP: 53; 6HR MAX TEMP: 63; GREENVILLE N/A 59 55 87 CALM 29.80F 6HR MIN TEMP: 54; 6HR MAX TEMP: 60; MILLINOCKET CLOUDY 58 56 93 CALM 29.83S 6HR MIN TEMP: 51; 6HR MAX TEMP: 58; HOULTON CLOUDY 60 55 83 S3 29.81S 6HR MIN TEMP: 46; 6HR MAX TEMP: 60; PRESQUE ISLE CLOUDY 60 54 80 SE3 29.81S 6HR MIN TEMP: 47; 6HR MAX TEMP: 60; FRENCHVILLE CLOUDY 56 51 84 SE7 29.78R 6HR MIN TEMP: 52; 6HR MAX TEMP: 57; CARIBOU CLOUDY 61 53 75 S7 29.79S 6HR MIN TEMP: 50; 6HR MAX TEMP: 62; $$ NHZ002-005-008-009-011-012-014-231300- NEW HAMPSHIRE CITY SKY/WX TMP DP RH WIND PRES REMARKS PORTSMOUTH PTSUNNY 70 61 74 CALM 29.78S ROCHESTER CLOUDY 68 60 75 CALM 29.80R 6HR MIN TEMP: 63; 6HR MAX TEMP: 68; NASHUA CLOUDY 69 64 84 CALM 29.81R MANCHESTER CLOUDY 70 61 73 S6 29.78S 6HR MIN TEMP: 68; 6HR MAX TEMP: 72; 6HR PCP: TRACE; CONCORD PTSUNNY 69 62 78 CALM 29.80S 6HR MIN TEMP: 63; 6HR MAX TEMP: 69; LACONIA CLOUDY N/A N/A N/A CALM 29.82R PLYMOUTH LGT RAIN 62 59 92 CALM 29.81F BERLIN LGT RAIN 58 55 90 E3 29.82F FOG 6HR MIN TEMP: 50; 6HR MAX TEMP: 58; 6HR PCP: 0.23; WHITEFIELD LGT RAIN 59 57 93 NE3 29.80F FOG 6HR MIN TEMP: 55; 6HR MAX TEMP: 59; 6HR PCP: 0.66; JAFFREY CLOUDY 66 64 93 SW5 29.83F 6HR MIN TEMP: 62; 6HR MAX TEMP: 66; 6HR PCP: TRACE; KEENE LGT RAIN 66 63 90 CALM 29.81F LEBANON CLOUDY 64 62 93 CALM 29.80S 6HR MIN TEMP: 62; 6HR MAX TEMP: 65; 6HR PCP: 0.01; MT WASHINGTON RAIN 52 52 100 W38 N/A VSB 0 6HR MIN TEMP: 47; 6HR MAX TEMP: 52; 6HR PCP: 1.00; $$ VTZ005-007-008-231300- VERMONT CITY SKY/WX TMP DP RH WIND PRES REMARKS ST JOHNSBURY N/A 60 60 100 MISG 29.78F MONTPELIER HVY RAIN 60 60 100 CALM 29.84R FOG BURLINGTON RAIN 66 64 93 S7 29.76R FOG $$ MAZ007-012-024-CTZ003-RIZ002-NYZ038-NYZ072-231300- SOUTHERN NEW ENGLAND AND NY CITY SKY/WX TMP DP RH WIND PRES REMARKS BOSTON CLOUDY 71 66 84 S8 29.80F WORCESTER CLOUDY 72 63 73 SW9 29.84R NANTUCKET CLOUDY 63 63 100 SW12 29.87S FOG PROVIDENCE CLOUDY 69 69 100 S6 29.84R FOG HARTFORD CLOUDY 70 68 93 S3 29.82R ALBANY CLOUDY 74 66 76 S9 29.77S NEW YORK CITY CLOUDY 81 72 74 SW9 29.81F $$ ANZ081-ANZ082-ANZ150-NHZ014-MEZ023>029-231300- COASTAL MARINE OBSERVATIONS STATION/POSITION TIME TEMP WIND PRES WAVE AIR SEA DIR/SP/G HT/PER (UTC) (F) (DEG/KT/KT) (MB) (FT/S) MATINICUS ROCK 1100 60 150/ 8/ 8 1009.5F ISLE OF SHOALS 1100 64 160/ 14/ 14 1008.5F JEFFREYS LEDGE 1106 59 N/A 2/ 6 CASHES LEDGE BUO 1050 62 59 1009.7 2/ 7 GEORGES BANK BUO 1050 55 53 1013.3 3/ 7 $$ .............KEY.............. WCI - WIND CHILL TC - TEMPERATURE IN CELSIUS VSB - VISIBILITY IN MILES HX - HEAT INDEX FAIR- INDICATES FEW OR NO CLOUDS BELOW 12,000 FT, WITH NO SIGNIFICANT WEATHER AND/OR OBSTRUCTIONS TO VISIBILITY.

USA.gov is the U.S. government's official web portal to all federal, state and local government web resources and services.